EW2533 Weather Reports


time (UTC)temp
F
wind
direction
speed
knots
gust
knots
rain 1hr
in
rain 24hr
in
rain mn
in
humidity
%
barometer
mb
20260505093016 55 225 2.6 6.1 0.00 0.00 0.00 54 1010.6
20260505092516 55 113 4.3 11.3 0.00 0.00 0.00 55 1010.7
20260505092016 55 158 2.6 5.2 0.00 0.00 0.00 55 1010.7
20260505091556 55 113 3.5 8.7 0.00 0.00 0.00 55 1010.5
20260505091036 55 158 1.7 4.3 0.00 0.00 0.00 55 1010.4
20260505090516 55 180 2.6 7.8 0.00 0.00 0.00 55 1010.5
20260505090037 55 113 5.2 11.3 0.00 0.00 0.00 56 1010.6
20260505085516 55 135 7.8 15.6 0.00 0.00 0.00 56 1010.7
20260505085016 55 135 7.8 11.3 0.00 0.00 0.00 57 1010.6
20260505084516 55 135 7.8 11.3 0.00 0.00 0.00 58 1010.7
20260505084016 55 113 7.0 13.0 0.00 0.00 0.00 58 1010.6
20260505083516 54 135 6.1 12.2 0.00 0.00 0.00 59 1010.7
20260505083016 54 135 6.1 8.7 0.00 0.00 0.00 60 1010.7
20260505082516 54 135 7.8 17.4 0.00 0.00 0.00 60 1010.9
20260505082036 53 135 7.8 13.0 0.00 0.00 0.00 62 1010.5
20260505081536 53 135 7.0 10.4 0.00 0.00 0.00 63 1010.4
20260505081016 53 135 7.0 9.6 0.00 0.00 0.00 64 1010.6
20260505080516 53 135 6.1 8.7 0.00 0.00 0.00 63 1010.6
20260505080016 53 135 5.2 13.9 0.00 0.00 0.00 63 1010.6
20260505075516 53 135 4.3 7.0 0.00 0.00 0.00 63 1010.7
20260505075016 53 113 4.3 7.0 0.00 0.00 0.00 63 1010.7
20260505074516 53 135 4.3 7.0 0.00 0.00 0.00 63 1010.7
20260505074016 54 135 5.2 7.8 0.00 0.00 0.00 63 1010.8
20260505073516 54 135 5.2 7.0 0.00 0.00 0.00 63 1010.8
20260505073016 54 135 5.2 7.0 0.00 0.00 0.00 62 1011.1
20260505072516 54 135 4.3 7.0 0.00 0.00 0.00 62 1011.1
20260505072016 54 68 3.5 6.1 0.00 0.00 0.00 62 1011.1
20260505071516 54 158 1.7 4.3 0.00 0.00 0.00 62 1010.8
20260505071016 54 158 3.5 6.1 0.00 0.00 0.00 61 1010.9
20260505070516 55 315 0.9 2.6 0.00 0.00 0.00 61 1011.3
20260505070018 55 158 5.2 9.6 0.00 0.00 0.00 61 1011.2
20260505065516 55 180 5.2 10.4 0.00 0.00 0.00 61 1011.2
20260505065016 55 203 7.0 11.3 0.00 0.00 0.00 60 1011.1
20260505064515 55 203 5.2 12.2 0.00 0.00 0.00 60 1010.7
20260505064016 55 158 5.2 13.0 0.00 0.00 0.00 59 1010.6
20260505063516 55 203 6.1 17.4 0.00 0.00 0.00 59 1010.4
20260505063015 55 180 8.7 14.8 0.00 0.00 0.00 59 1010.4
20260505062516 56 180 10.4 20.0 0.00 0.00 0.00 58 1010.2
20260505062036 56 180 9.6 17.4 0.00 0.00 0.00 58 1010.5
20260505061516 56 180 7.0 13.9 0.00 0.00 0.00 57 1010.1
20260505061016 56 180 11.3 20.9 0.00 0.00 0.00 57 1010.0
20260505060515 56 180 11.3 25.2 0.00 0.00 0.00 56 1010.0
20260505060016 56 180 9.6 14.8 0.00 0.00 0.00 55 1009.7
20260505055517 57 180 10.4 17.4 0.00 0.00 0.00 55 1009.8
20260505055017 57 158 8.7 16.5 0.00 0.00 0.00 54 1010.2
20260505054517 57 158 7.0 13.0 0.00 0.00 0.00 53 1009.9
20260505054017 57 135 7.0 13.9 0.00 0.00 0.00 53 1009.9
20260505053537 57 135 6.1 13.0 0.00 0.00 0.00 52 1009.9
20260505053017 57 113 6.1 11.3 0.00 0.00 0.00 52 1009.9
20260505052517 57 135 5.2 10.4 0.00 0.00 0.00 51 1009.9
20260505052017 58 135 5.2 9.6 0.00 0.00 0.00 51 1010.0
20260505051517 58 135 4.3 9.6 0.00 0.00 0.00 50 1009.9
20260505051017 58 180 1.7 3.5 0.00 0.00 0.00 50 1009.9
20260505050517 58 158 2.6 4.3 0.00 0.00 0.00 49 1009.9
20260505041617 60 135 0.9 3.5 0.00 0.00 0.00 41 1009.2
20260505041017 60 135 0.9 3.5 0.00 0.00 0.00 40 1009.2
20260505040516 60 0.0 1.7 0.00 0.00 0.00 39 1009.0
20260505040031 61 135 3.5 6.1 0.00 0.00 0.00 39 1009.0
20260505035516 61 135 4.3 6.1 0.00 0.00 0.00 38 1008.8
20260505035017 61 135 2.6 4.3 0.00 0.00 0.00 38 1008.8
20260505034516 61 135 2.6 7.8 0.00 0.00 0.00 38 1008.7
20260505034017 61 135 3.5 6.1 0.00 0.00 0.00 38 1008.7
20260505033516 61 135 3.5 7.0 0.00 0.00 0.00 38 1008.5
20260505033017 61 135 3.5 7.0 0.00 0.00 0.00 38 1008.4
20260505032517 61 135 5.2 7.0 0.00 0.00 0.00 38 1008.4
20260505032016 62 158 3.5 7.0 0.00 0.00 0.00 37 1008.3
20260505031517 62 135 2.6 6.1 0.00 0.00 0.00 37 1008.1
20260505031016 62 135 5.2 7.8 0.00 0.00 0.00 36 1008.0
20260505030517 62 158 5.2 8.7 0.00 0.00 0.00 35 1007.9
20260505030017 62 158 5.2 8.7 0.00 0.00 0.00 35 1007.9
20260505025536 62 135 6.1 9.6 0.00 0.00 0.00 35 1007.9
20260505025057 62 135 6.1 8.7 0.00 0.00 0.00 35 1007.7
20260505024516 63 135 7.0 9.6 0.00 0.00 0.00 34 1007.3
20260505024016 63 135 6.1 9.6 0.00 0.00 0.00 34 1007.2
20260505023517 64 158 4.3 7.0 0.00 0.00 0.00 33 1007.2
20260505023056 64 158 4.3 7.0 0.00 0.00 0.00 33 1007.2
20260505022536 65 158 4.3 7.8 0.00 0.00 0.00 32 1007.5
20260505022016 65 180 2.6 7.0 0.00 0.00 0.00 32 1007.5
20260505021516 66 180 4.3 7.0 0.00 0.00 0.00 30 1007.0
20260505021016 66 203 4.3 7.8 0.00 0.00 0.00 30 1007.1
20260505020557 67 203 4.3 6.1 0.00 0.00 0.00 32 1007.5
20260505020017 67 203 4.3 6.1 0.00 0.00 0.00 30 1007.4
20260505015516 68 225 2.6 5.2 0.00 0.00 0.00 30 1007.4
20260505015016 68 225 3.5 6.1 0.00 0.00 0.00 30 1007.4
20260505014516 68 203 2.6 5.2 0.00 0.00 0.00 29 1007.3
20260505014036 69 203 2.6 6.1 0.00 0.00 0.00 29 1007.6
20260505013536 68 203 0.9 3.5 0.00 0.00 0.00 29 1007.2
20260505013016 68 203 0.9 3.5 0.00 0.00 0.00 30 1007.3
20260505012516 68 203 1.7 4.3 0.00 0.00 0.00 30 1007.3
20260505012016 68 203 2.6 3.5 0.00 0.00 0.00 30 1007.3
20260505011536 68 203 0.9 3.5 0.00 0.00 0.00 30 1007.3
20260505011016 68 225 0.9 1.7 0.00 0.00 0.00 32 1007.5
20260505010536 68 225 1.7 2.6 0.00 0.00 0.00 31 1007.5
20260505010017 67 225 1.7 3.5 0.00 0.00 0.00 32 1007.5
20260505005516 67 270 1.7 3.5 0.00 0.00 0.00 31 1007.6
20260505005016 67 0.0 1.7 0.00 0.00 0.00 30 1007.6
20260505004536 67 0.0 0.0 0.00 0.00 0.00 30 1007.6
20260505004016 67 0.0 0.9 0.00 0.00 0.00 29 1007.6
20260505003516 67 270 1.7 3.5 0.00 0.00 0.00 29 1007.6
20260505003016 67 270 1.7 4.3 0.00 0.00 0.00 29 1007.7
20260505002516 67 0.0 1.7 0.00 0.00 0.00 30 1007.8
20260505002016 67 0.0 0.0 0.00 0.00 0.00 33 1007.8
20260505001516 67 0.0 1.7 0.00 0.00 0.00 31 1007.9
20260505001016 67 158 1.7 4.3 0.00 0.00 0.00 33 1007.9
20260505000516 66 135 4.3 7.8 0.00 0.00 0.00 35 1008.0
20260505000017 66 135 5.2 7.8 0.00 0.00 0.00 34 1008.0
20260504235516 66 135 5.2 8.7 0.00 0.00 0.00 34 1008.0
20260504235016 66 135 5.2 10.4 0.00 0.00 0.00 36 1007.6
20260504234516 65 113 7.0 11.3 0.00 0.00 0.00 37 1007.7
20260504234016 64 135 8.7 12.2 0.00 0.00 0.00 38 1007.7
20260504233516 64 135 9.6 14.8 0.00 0.00 0.00 38 1007.8
20260504233016 64 135 11.3 17.4 0.00 0.00 0.00 37 1007.8
20260504232516 64 135 12.2 20.0 0.00 0.00 0.00 38 1007.9
20260504232016 64 135 11.3 17.4 0.00 0.00 0.00 37 1008.0
20260504231516 64 135 11.3 19.1 0.00 0.00 0.00 37 1008.1
20260504231016 64 113 13.0 20.0 0.00 0.00 0.00 37 1008.2
20260504230516 65 135 11.3 19.1 0.00 0.00 0.00 35 1008.2
20260504230016 65 135 11.3 20.0 0.00 0.00 0.00 34 1008.7
20260504225516 67 180 10.4 20.0 0.00 0.00 0.00 32 1009.0
20260504225016 68 180 6.1 9.6 0.00 0.00 0.00 31 1008.9
20260504224516 70 203 7.8 13.0 0.00 0.00 0.00 29 1009.1
20260504224016 71 315 4.3 9.6 0.00 0.00 0.00 27 1009.5
20260504223516 72 315 6.1 10.4 0.00 0.00 0.00 28 1009.4
20260504223016 72 293 6.1 12.2 0.00 0.00 0.00 29 1009.3
20260504222516 71 315 8.7 14.8 0.00 0.00 0.00 28 1009.2
20260504222016 72 315 9.6 14.8 0.00 0.00 0.00 28 1009.2
20260504221516 72 315 11.3 17.4 0.00 0.00 0.00 30 1009.2
20260504221016 72 0 7.0 12.2 0.00 0.00 0.00 29 1009.0
20260504220536 73 315 7.8 11.3 0.00 0.00 0.00 28 1009.3
20260504220030 73 293 5.2 9.6 0.00 0.00 0.00 26 1009.3
20260504215516 73 338 5.2 10.4 0.00 0.00 0.00 30 1009.3
20260504215016 73 338 7.0 13.9 0.00 0.00 0.00 28 1009.4
20260504214536 72 315 9.6 13.0 0.00 0.00 0.00 29 1009.1
20260504214036 73 315 9.6 15.6 0.00 0.00 0.00 27 1009.2
20260504213516 73 0 4.3 9.6 0.00 0.00 0.00 28 1009.6
20260504213016 73 338 9.6 13.0 0.00 0.00 0.00 28 1009.7
20260504212516 74 338 5.2 10.4 0.00 0.00 0.00 26 1009.7
20260504212016 74 338 7.8 11.3 0.00 0.00 0.00 28 1009.8
20260504211516 74 338 8.7 13.0 0.00 0.00 0.00 28 1009.9
20260504211016 73 338 7.8 11.3 0.00 0.00 0.00 29 1009.7
20260504210516 73 315 6.1 11.3 0.00 0.00 0.00 28 1009.7
20260504210016 73 338 6.1 12.2 0.00 0.00 0.00 26 1009.8
20260504205516 72 315 5.2 12.2 0.00 0.00 0.00 28 1009.8
20260504205016 72 315 5.2 13.0 0.00 0.00 0.00 28 1009.9
20260504204516 72 338 6.1 10.4 0.00 0.00 0.00 30 1009.9
20260504204016 71 23 5.2 8.7 0.00 0.00 0.00 32 1010.0
20260504203516 70 315 3.5 7.0 0.00 0.00 0.00 31 1009.7
20260504203016 70 315 6.1 10.4 0.00 0.00 0.00 31 1009.9
20260504202516 71 338 8.7 13.0 0.00 0.00 0.00 30 1010.2
20260504202016 71 315 7.8 12.2 0.00 0.00 0.00 28 1010.1
20260504201516 72 0 5.2 10.4 0.00 0.00 0.00 30 1010.2
20260504201036 72 338 7.0 10.4 0.00 0.00 0.00 32 1010.2
20260504200536 72 338 7.8 10.4 0.00 0.00 0.00 28 1010.2
20260504200026 72 315 9.6 14.8 0.00 0.00 0.00 30 1010.3
20260504195516 72 293 6.1 13.0 0.00 0.00 0.00 29 1010.2
20260504195015 72 315 7.0 11.3 0.00 0.00 0.00 29 1010.3
20260504194536 72 315 7.8 12.2 0.00 0.00 0.00 29 1010.3
20260504194016 73 338 7.8 15.6 0.00 0.00 0.00 31 1010.8
20260504193516 73 338 7.8 13.0 0.00 0.00 0.00 30 1010.8
20260504193016 73 0 7.0 10.4 0.00 0.00 0.00 31 1011.0
20260504192516 73 0 3.5 7.8 0.00 0.00 0.00 32 1011.0
20260504192016 72 338 5.2 8.7 0.00 0.00 0.00 31 1011.0
20260504191516 72 0 6.1 10.4 0.00 0.00 0.00 30 1011.1
20260504191015 72 45 4.3 9.6 0.00 0.00 0.00 29 1010.9
20260504190515 72 315 7.0 10.4 0.00 0.00 0.00 31 1011.0
20260504190016 72 315 5.2 11.3 0.00 0.00 0.00 31 1010.9
20260504185516 71 338 2.6 7.8 0.00 0.00 0.00 31 1011.1
20260504185036 71 315 4.3 9.6 0.00 0.00 0.00 31 1011.2
20260504184515 71 338 7.8 10.4 0.00 0.00 0.00 32 1011.1
20260504184016 71 270 4.3 8.7 0.00 0.00 0.00 32 1010.9
20260504183515 71 225 2.6 5.2 0.00 0.00 0.00 28 1010.8
20260504183017 70 270 4.3 7.8 0.00 0.00 0.00 29 1011.1
20260504182516 70 293 5.2 9.6 0.00 0.00 0.00 29 1011.1
20260504182016 70 270 5.2 7.8 0.00 0.00 0.00 29 1011.1
20260504181516 70 315 3.5 7.0 0.00 0.00 0.00 29 1011.3
20260504181015 70 270 2.6 6.1 0.00 0.00 0.00 30 1011.7
20260504180536 70 203 2.6 6.1 0.00 0.00 0.00 30 1011.7
20260504180015 69 270 1.7 5.2 0.00 0.00 0.00 28 1011.4
20260504175516 69 270 4.3 6.1 0.00 0.00 0.00 29 1011.8
20260504175036 69 203 2.6 5.2 0.00 0.00 0.00 29 1011.9
20260504174516 69 203 3.5 6.1 0.00 0.00 0.00 32 1011.9
20260504174015 69 203 3.5 6.1 0.00 0.00 0.00 30 1011.9
20260504173515 68 293 3.5 5.2 0.00 0.00 0.00 32 1011.6
20260504173016 68 338 2.6 4.3 0.00 0.00 0.00 30 1011.6
20260504172515 68 315 3.5 7.0 0.00 0.00 0.00 32 1011.7
20260504172016 68 315 5.2 7.8 0.00 0.00 0.00 33 1011.8
20260504171515 68 293 4.3 8.7 0.00 0.00 0.00 32 1011.8
20260504171015 68 315 4.3 7.8 0.00 0.00 0.00 33 1011.8
20260504170516 68 293 7.0 9.6 0.00 0.00 0.00 32 1011.8
20260504151015 63 0 2.6 4.3 0.00 0.00 0.00 39 1011.4
20260504150535 62 0 3.5 5.2 0.00 0.00 0.00 40 1011.5
20260504141015 59 68 2.6 3.5 0.00 0.00 0.00 44 1011.2
20260504140517 58 0.0 1.7 0.00 0.00 0.00 43 1011.2
20260504130537 57 113 4.3 7.0 0.00 0.00 0.00 42 1011.6
20260504110517 59 135 7.0 11.3 0.00 0.00 0.00 34 1013.2
20260504100516 61 180 5.2 8.7 0.00 0.00 0.00 28 1013.1